Provo, UT

5:53 PM MDT on July 27, 2017 (GMT -0600)
Provo Municipal

Weather History for KPVU - August, 2013

Change the Weather History Date:

Tuesday, August 13, 2013

  Actual Average Record
Temperature  
Mean Temperature 74 °F -  
Max Temperature 91 °F 87 °F 98 °F (2007)
Min Temperature 57 °F 57 °F 51 °F (2002)
Cooling Degree Days 9    
Growing Degree Days 24 (Base 50)    
Moisture  
Dew Point 43 °F    
Average Humidity 40    
Maximum Humidity 63    
Minimum Humidity 11    
Precipitation  
Precipitation 0.00 in - - ()
Sea Level Pressure  
Sea Level Pressure 30.12 in    
Wind  
Wind Speed 5 mph (SSE)    
Max Wind Speed 10 mph    
Max Gust Speed -    
Visibility 11 miles    
Events      
Averages and records for this station are not official NWS values.
T = Trace of Precipitation, MM = Missing Value Source: NWS Daily Summary

Daily Weather History Graph

Daily Weather History Graph

Search for Another Location

Airport or City:

Trip Planner

Search our weather history database for the weather conditions in past years. The results will help you decide how hot, cold, wet, or windy it might be!

Date:

Astronomy

Aug. 13, 2013 Rise Set
Actual Time 6:36 AM MDT 8:26 PM MDT
Civil Twilight 6:07 AM MDT 8:55 PM MDT
Nautical Twilight 5:31 AM MDT 9:30 PM MDT
Astronomical Twilight 4:53 AM MDT 10:08 PM MDT
Moon 1:35 PM MDT (8/13) No Moon Set
Length of Visible Light 14h 48m
Length of Day
13h 49m
Waxing Crescent, 42% of the Moon is Illuminated
Aug 13
Waxing Crescent
Aug 14
First Quarter
Aug 20
Full
Aug 28
Last Quarter
Sep 5
New

Hourly Weather History & Observations

Time (MDT) Temp. Dew Point Humidity Pressure Visibility Wind Dir Wind Speed Gust Speed Precip Events Conditions
12:15 AM 69.8 °F 44.6 °F 40% 30.12 in 10.0 mi East 3.5 mph - N/A   Clear
12:35 AM 68.0 °F 44.6 °F 43% 30.11 in 10.0 mi SSW 9.2 mph - N/A   Clear
12:55 AM 66.2 °F 44.6 °F 46% 30.12 in 10.0 mi South 8.1 mph - N/A   Clear
1:35 AM 64.4 °F 44.6 °F 49% 30.12 in 10.0 mi East 6.9 mph - N/A   Clear
1:55 AM 64.4 °F 46.4 °F 52% 30.13 in 10.0 mi ESE 5.8 mph - N/A   Clear
2:15 AM 64.4 °F 44.6 °F 49% 30.12 in 10.0 mi SE 5.8 mph - N/A   Clear
2:35 AM 66.2 °F 44.6 °F 46% 30.13 in 10.0 mi SE 5.8 mph - N/A   Clear
2:55 AM 66.2 °F 44.6 °F 46% 30.13 in 10.0 mi ESE 6.9 mph - N/A   Clear
3:15 AM 64.4 °F 44.6 °F 49% 30.13 in 10.0 mi Calm Calm - N/A   Clear
3:35 AM 60.8 °F 44.6 °F 55% 30.13 in 10.0 mi Calm Calm - N/A   Clear
3:55 AM 60.8 °F 44.6 °F 55% 30.14 in 10.0 mi Calm Calm - N/A   Clear
4:15 AM 62.6 °F 42.8 °F 48% 30.14 in 10.0 mi South 9.2 mph - N/A   Clear
4:35 AM 64.4 °F 42.8 °F 45% 30.15 in 10.0 mi SE 6.9 mph - N/A   Clear
4:55 AM 64.4 °F 42.8 °F 45% 30.14 in 10.0 mi SE 5.8 mph - N/A   Clear
5:15 AM 62.6 °F 42.8 °F 48% 30.15 in 10.0 mi Calm Calm - N/A   Clear
5:35 AM 62.6 °F 44.6 °F 52% 30.15 in 10.0 mi SW 6.9 mph - N/A   Clear
5:55 AM 62.6 °F 44.6 °F 52% 30.15 in 10.0 mi SW 4.6 mph - N/A   Clear
6:15 AM 62.6 °F 42.8 °F 48% 30.15 in 10.0 mi SW 3.5 mph - N/A   Clear
6:35 AM 62.6 °F 42.8 °F 48% 30.16 in 10.0 mi Calm Calm - N/A   Clear
6:55 AM 57.2 °F 44.6 °F 63% 30.16 in 10.0 mi SSE 9.2 mph - N/A   Clear
6:57 AM 59.0 °F 44.6 °F 59% 30.16 in 15.0 mi SE 9.2 mph - N/A   Partly Cloudy
7:54 AM 64.4 °F 44.6 °F 49% 30.18 in 15.0 mi SE 10.4 mph - N/A   Partly Cloudy
8:55 AM 68.0 °F 44.6 °F 43% 30.20 in 15.0 mi SE 3.5 mph - N/A   Partly Cloudy
9:53 AM 73.4 °F 44.6 °F 36% 30.20 in 15.0 mi SSE 9.2 mph - N/A   Partly Cloudy
10:51 AM 77.0 °F 48.2 °F 36% 30.19 in 15.0 mi East 3.5 mph - N/A   Partly Cloudy
12:50 PM 86.0 °F 39.2 °F 19% 30.17 in 15.0 mi Calm Calm - N/A   Partly Cloudy
1:50 PM 87.8 °F 37.4 °F 17% 30.14 in 15.0 mi Variable 5.8 mph - N/A   Scattered Clouds
2:59 PM 91.4 °F 35.6 °F 14% 30.12 in 15.0 mi ENE 6.9 mph - N/A   Scattered Clouds
3:55 PM 91.4 °F 30.2 °F 11% 30.10 in 15.0 mi Variable 3.5 mph - N/A   Scattered Clouds
4:50 PM 91.4 °F 30.2 °F 11% 30.08 in 15.0 mi ESE 4.6 mph - N/A   Scattered Clouds
5:47 PM 91.4 °F 30.2 °F 11% 30.07 in 15.0 mi East 6.9 mph - N/A   Scattered Clouds
6:47 PM 91.4 °F 30.2 °F 11% 30.06 in 15.0 mi Variable 4.6 mph - N/A   Partly Cloudy
7:58 PM 84.2 °F 42.8 °F 23% 30.05 in 15.0 mi Calm Calm - N/A   Partly Cloudy
9:15 PM 75.2 °F 37.4 °F 25% 30.07 in 10.0 mi NNW 5.8 mph - N/A   Clear
9:35 PM 75.2 °F 37.4 °F 25% 30.08 in 10.0 mi Calm Calm - N/A   Clear
9:55 PM 71.6 °F 55.4 °F 57% 30.09 in 5.0 mi SW 4.6 mph - N/A   Clear
10:15 PM 73.4 °F 53.6 °F 50% 30.09 in 10.0 mi SW 5.8 mph - N/A   Clear
10:35 PM 69.8 °F 44.6 °F 40% 30.09 in 10.0 mi South 6.9 mph - N/A   Clear
10:55 PM 69.8 °F 39.2 °F 33% 30.08 in 10.0 mi Calm Calm - N/A   Clear
11:15 PM 66.2 °F 44.6 °F 46% 30.08 in 10.0 mi SE 3.5 mph - N/A   Clear
11:35 PM 66.2 °F 48.2 °F 52% 30.08 in 10.0 mi ESE 4.6 mph - N/A   Clear
11:55 PM 66.2 °F 42.8 °F 43% 30.08 in 10.0 mi SSE 9.2 mph - N/A   Clear